EVENES_(CIV/MIL) current weather conditions

sailwx.info

Last reported at 2020-Jan-22 15:00 UTC.
Time now 2020-Jan-22 15:49 UTC

Location: N 68°31' E 016°41'.
View on Google Maps.

See reports from other nearby stations

  
Tides and Currents Weather Stations Pressure Air Temp Water Temp Dewpoint Dewpoint Depression Visibility Wind Speed Wind Dir Waves Ship Positions
date/time (UTC)wind fromknots sea level pressurealtimeterstation pressurevisibilityair tempwater tempwave heightnotes
2020-Jan-22 14:50 5.4-2.0
2020-Jan-22 14:20 5.4-3.0
2020-Jan-22 13:50 5.4-2.0
2020-Jan-22 13:20 5.4-2.0
2020-Jan-22 12:50 5.4-3.0
2020-Jan-22 12:20 5.4-3.0
2020-Jan-22 11:50 310 2 5.4-2.0
2020-Jan-22 11:20 5.4-2.0
2020-Jan-22 10:50 290 2 5.4-2.0
2020-Jan-22 10:20 320 6 5.4-1.0
2020-Jan-22 09:50 320 4 5.4-1.0
2020-Jan-22 09:20 350 7 5.4-2.0
2020-Jan-22 08:50 340 9 5.4-1.0 Light snow showers.
2020-Jan-22 08:20 340 12 5.4-1.0 Light snow showers.
2020-Jan-22 07:50 330 9 4.9-1.0 Light snow showers.
2020-Jan-22 07:20 330 13 2.2-1.0 Light snow showers.
2020-Jan-22 06:50 350 8 5.4-1.0 Light snow.
2020-Jan-22 06:20 330 11 5.4-1.0 Light snow.
2020-Jan-22 05:50 340 11 5.4-0.0
2020-Jan-22 05:20 320 6 4.9-0.0 Light snow showers.
2020-Jan-22 04:50 320 12 1.3-0.0 Snow showers.
2020-Jan-22 04:20 340 8 5.4 1.0
2020-Jan-22 03:50 320 7 4.3-0.0 Light snow.
2020-Jan-22 03:20 5.4-1.0
2020-Jan-22 02:50 5.4-1.0
2020-Jan-22 02:20 020 4 0.5-2.0 Light snow.
2020-Jan-22 01:50 0.6-3.0 Light snow.
2020-Jan-22 01:20 5.4-4.0 Light snow.
2020-Jan-22 00:50 2.7-5.0 Light ice pellets.
2020-Jan-22 00:20 5.4-6.0
2020-Jan-21 23:50 030 1 5.4-6.0
2020-Jan-21 23:20 5.4-6.0
2020-Jan-21 22:50 5.4-5.0
2020-Jan-21 22:20 360 2 5.4-6.0
2020-Jan-21 21:50 5.4-4.0
2020-Jan-21 21:20 5.4-3.0
2020-Jan-21 20:50 5.4-3.0
2020-Jan-21 20:20 5.4-3.0
2020-Jan-21 19:50 5.4-1.0 Showers in the vicinity.
2020-Jan-21 19:20 4.3-1.0 Light snow showers.
2020-Jan-21 18:50 260 2 4.3-1.0 Light snow showers.
2020-Jan-21 18:20 110 6 5.4-1.0 Showers in the vicinity.
2020-Jan-21 17:50 240 6 5.4-1.0 Light snow showers.
2020-Jan-21 17:20 230 6 5.4-1.0 Light snow showers.
2020-Jan-21 16:50 180 4 5.4-2.0 Light snow showers.
2020-Jan-21 16:20 230 6 5.4-2.0 Light snow showers.
2020-Jan-21 15:50 250 6 3.2-1.0 Light snow showers.
2020-Jan-21 15:20 100 5 5.4-1.0
2020-Jan-21 14:50 5.4-1.0 Light snow.
2020-Jan-21 14:20 250 6 0.9-1.0 Snow.
2020-Jan-21 13:50 240 7 5.4-0.0 Light snow.
2020-Jan-21 13:20 230 6 5.4-1.0 Light snow.
2020-Jan-21 12:50 240 7 1.8-0.0 Light snow.
2020-Jan-21 12:20 240 11 1.2-1.0 Light snow showers.
2020-Jan-21 11:50 230 9 2.4-1.0 Light snow showers.
2020-Jan-21 11:20 270 6 2.5-0.0 Light snow showers.
2020-Jan-21 10:50 230 11 1.6-0.0 Snow showers.
2020-Jan-21 10:20 210 6 1.1-1.0 Snow showers.
2020-Jan-21 09:50 210 7 0.9-1.0 Snow.
2020-Jan-21 09:20 290 6 0.9-1.0 Snow.
2020-Jan-21 08:50 170 6 5.4-0.0 Light snow.
2020-Jan-21 08:20 270 6 5.4-0.0 Light snow showers.
2020-Jan-21 07:50 240 6 2.6-0.0 Light snow showers.
2020-Jan-21 07:20 220 7 5.4 1.0 Light snow showers.
2020-Jan-21 06:50 230 9 5.4 1.0 Light snow showers.
2020-Jan-21 06:20 220 7 5.4-0.0 Snow grains.
2020-Jan-21 05:50 260 7 1.9 1.0 Snow showers.
2020-Jan-21 05:20 240 12 5.4 1.0
2020-Jan-21 04:50 250 11 5.4 1.0
2020-Jan-21 04:20 240 13 gusting 29 5.4 1.0 Light snow.
2020-Jan-21 03:50 240 8 1.5 1.0 Light snow.
2020-Jan-21 03:20 250 7 5.4 1.0 Light snow.
2020-Jan-21 02:50 270 13 gusting 25 1.1 2.0 Light snow.
2020-Jan-21 02:20 250 7 3.2 1.0 Light rain.
2020-Jan-21 01:50 240 13 gusting 25 0.6 1.0 Light snow.
2020-Jan-21 01:20 220 12 4.9 1.0 Light rain.
2020-Jan-21 00:50 220 11 2.7 1.0 Light snow.
2020-Jan-21 00:20 230 13 3.8 2.0 Light rain.
2020-Jan-20 23:50 170 6 gusting 20 5.4 1.0
2020-Jan-20 23:20 190 6 5.4 1.0
2020-Jan-20 22:50 220 8 5.4 2.0 Light rain.
2020-Jan-20 22:20 230 9 5.4 3.0
2020-Jan-20 21:50 230 11 5.4 3.0 Light drizzle.
2020-Jan-20 21:20 240 11 5.4 3.0
2020-Jan-20 20:50 5.4 3.0
2020-Jan-20 20:20 020 5 5.4 2.0
2020-Jan-20 19:50 5.4 2.0 Rain showers.
2020-Jan-20 19:20 5.4 2.0
2020-Jan-20 18:50 340 8 5.4 3.0 Rain.
2020-Jan-20 18:20 260 7 5.4 3.0 Rain.
2020-Jan-20 17:50 230 12 5.4 4.0 Rain.
2020-Jan-20 17:20 220 14 5.4 4.0 Rain.
2020-Jan-20 16:50 220 13 4.9 3.0 Rain.
2020-Jan-20 16:20 220 14 3.8 4.0 Light rain showers.
2020-Jan-20 15:50 220 18 gusting 31 3.2 4.0 Rain showers.
2020-Jan-20 15:20 230 13 gusting 26 3.8 4.0 Rain.